Location: Poprad
(49.0500°N, 20.3000°E)
Time: 18:59:33
(UTC+02:00)

RS-44 - Pass Details

Date: 21 April 2024
Orbit: 1174 x 1511 km, 82.5° (Epoch: 20 May)

Event Time Altitude Azimuth Distance (km) Brightness Sun altitude
Rises 19:54:28 0° 172° (S) 4,635 ? -3.0°
Reaches altitude 10° 19:57:26 10° 169° (S) 3,646 ? -3.4°
Maximum altitude 20:06:03 61° 92° (E) 1,627 ? -4.7°
Drops below altitude 10° 20:14:15 10° 15° (NNE) 3,483 ? -5.9°
Sets 20:17:02 0° 13° (NNE) 4,418 ? -6.3°
